Alma, MI

8:06 AM EDT on March 23, 2017 (GMT -0400)
Gratiot Community

Weather History for KAMN - May, 2013

Change the Weather History Date:

Monday, May 6, 2013

  Actual Average Record
Temperature  
Mean Temperature 59 °F -  
Max Temperature 75 °F 67 °F 86 °F (1949)
Min Temperature 43 °F 41 °F 27 °F (1970)
Degree Days  
Heating Degree Days 6    
Growing Degree Days 9 (Base 50)    
Moisture  
Dew Point 39 °F    
Average Humidity 54    
Maximum Humidity 95    
Minimum Humidity 20    
Precipitation  
Precipitation 0.00 in - - ()
Sea Level Pressure  
Sea Level Pressure 30.04 in    
Wind  
Wind Speed 2 mph (NE)    
Max Wind Speed 12 mph    
Max Gust Speed 22 mph    
Visibility 10 miles    
Events      
Averages and records for this station are not official NWS values.
T = Trace of Precipitation, MM = Missing Value Source: NWS Daily Summary

Daily Weather History Graph

Daily Weather History Graph

Search for Another Location

Airport or City:

Trip Planner

Search our weather history database for the weather conditions in past years. The results will help you decide how hot, cold, wet, or windy it might be!

Date:

Astronomy

May. 06, 2013 Rise Set
Actual Time 6:24 AM EDT 8:46 PM EDT
Civil Twilight 5:53 AM EDT 9:18 PM EDT
Nautical Twilight 5:13 AM EDT 9:58 PM EDT
Astronomical Twilight 4:29 AM EDT 10:42 PM EDT
Moon 4:32 AM EDT (5/6) 5:41 PM EDT (5/6)
Length of Visible Light 15h 25m
Length of Day
14h 21m
Waning Crescent, 11% of the Moon is Illuminated
May 6
Waning Crescent
May 9
New
May 18
First Quarter
May 25
Full
May 31
Last Quarter

Hourly Weather History & Observations

Time (EDT) Temp. Windchill Dew Point Humidity Pressure Visibility Wind Dir Wind Speed Gust Speed Precip Events Conditions
12:15 AM 47.1 °F - 40.6 °F 78% 30.07 in 10.0 mi Calm Calm - N/A   Clear
12:34 AM 50.5 °F - 42.1 °F 73% 30.07 in 10.0 mi Calm Calm - N/A   Clear
12:54 AM 49.3 °F - 42.3 °F 77% 30.08 in 10.0 mi Calm Calm - N/A   Clear
1:14 AM 48.4 °F - 41.2 °F 76% 30.08 in 10.0 mi Calm Calm - N/A   Clear
1:34 AM 49.3 °F - 43.2 °F 79% 30.07 in 10.0 mi Calm Calm - N/A   Clear
1:55 AM 48.4 °F - 41.9 °F 78% 30.07 in 10.0 mi Calm Calm - N/A   Clear
2:35 AM 45.1 °F - 41.0 °F 85% 30.06 in 10.0 mi Calm Calm - N/A   Clear
2:54 AM 46.4 °F - 41.9 °F 84% 30.06 in 10.0 mi Calm Calm - N/A   Clear
3:14 AM 47.5 °F - 42.6 °F 83% 30.05 in 10.0 mi Calm Calm - N/A   Clear
3:34 AM 44.8 °F - 41.0 °F 87% 30.05 in 10.0 mi Calm Calm - N/A   Clear
3:55 AM 46.0 °F 44.8 °F 43.2 °F 90% 30.05 in 10.0 mi NNW 3.5 mph - N/A   Clear
4:14 AM 45.3 °F 44.0 °F 41.0 °F 85% 30.04 in 10.0 mi North 3.5 mph - N/A   Clear
4:34 AM 45.9 °F - 42.8 °F 89% 30.05 in 10.0 mi Calm Calm - N/A   Clear
4:54 AM 46.4 °F - 43.5 °F 90% 30.05 in 10.0 mi Calm Calm - N/A   Clear
5:14 AM 45.5 °F - 43.7 °F 93% 30.05 in 10.0 mi Calm Calm - N/A   Clear
5:34 AM 45.0 °F 43.5 °F 43.5 °F 95% 30.05 in 10.0 mi North 3.5 mph - N/A   Clear
5:54 AM 43.5 °F - 41.2 °F 91% 30.05 in 10.0 mi Calm Calm - N/A   Clear
6:15 AM 46.0 °F - 44.2 °F 93% 30.06 in 10.0 mi Calm Calm - N/A   Clear
6:34 AM 45.7 °F - 43.7 °F 93% 30.06 in 10.0 mi Calm Calm - N/A   Clear
6:54 AM 45.7 °F 44.4 °F 43.2 °F 91% 30.06 in 10.0 mi North 3.5 mph - N/A   Clear
7:14 AM 47.1 °F - 43.7 °F 88% 30.07 in 10.0 mi NE 3.5 mph - N/A   Clear
7:35 AM 48.2 °F - 44.6 °F 87% 30.07 in 10.0 mi NNE 4.6 mph - N/A   Clear
7:54 AM 50.0 °F - 45.1 °F 83% 30.08 in 10.0 mi NNE 5.8 mph - N/A   Clear
8:14 AM 52.0 °F - 46.0 °F 80% 30.08 in 10.0 mi North 5.8 mph - N/A   Clear
8:34 AM 53.6 °F - 46.8 °F 78% 30.08 in 10.0 mi North - - N/A   Clear
8:54 AM 54.5 °F - 47.1 °F 76% 30.09 in 10.0 mi North - - N/A   Clear
9:15 AM 56.5 °F - 48.0 °F 73% 30.09 in 10.0 mi NE 4.6 mph - N/A   Clear
9:34 AM 58.1 °F - 46.9 °F 66% 30.09 in 10.0 mi North - - N/A   Clear
9:54 AM 59.7 °F - 46.8 °F 62% 30.09 in 10.0 mi North - - N/A   Clear
10:14 AM 61.0 °F - 46.4 °F 59% 30.09 in 10.0 mi NE 3.5 mph - N/A   Clear
10:35 AM 62.6 °F - 45.1 °F 53% 30.08 in 10.0 mi NE 4.6 mph - N/A   Clear
10:54 AM 63.5 °F - 43.5 °F 48% 30.08 in 10.0 mi East 5.8 mph - N/A   Clear
11:15 AM 64.8 °F - 42.3 °F 44% 30.08 in 10.0 mi East 4.6 mph - N/A   Clear
11:34 AM 66.2 °F - 42.8 °F 43% 30.07 in 10.0 mi ENE 4.6 mph - N/A   Clear
11:54 AM 68.0 °F - 41.2 °F 38% 30.07 in 10.0 mi NE 3.5 mph - N/A   Clear
12:14 PM 69.3 °F - 40.1 °F 35% 30.06 in 10.0 mi ENE 8.1 mph - N/A   Clear
12:35 PM 70.3 °F - 38.8 °F 32% 30.06 in 10.0 mi East 10.4 mph - N/A   Clear
12:54 PM 70.9 °F - 37.8 °F 30% 30.06 in 10.0 mi North - - N/A   Clear
1:14 PM 72.1 °F - 35.1 °F 26% 30.05 in 10.0 mi East 10.4 mph - N/A   Clear
1:35 PM 72.9 °F - 34.7 °F 25% 30.04 in 10.0 mi North - - N/A   Clear
1:54 PM 73.4 °F - 33.3 °F 23% 30.04 in 10.0 mi East 4.6 mph 21.9 mph N/A   Clear
2:14 PM 73.8 °F - 33.4 °F 23% 30.04 in 10.0 mi North - - N/A   Clear
2:35 PM 73.6 °F - 32.0 °F 22% 30.03 in 10.0 mi ESE 9.2 mph - N/A   Clear
2:54 PM 74.1 °F - 35.1 °F 24% 30.03 in 10.0 mi North - - N/A   Clear
3:14 PM 73.8 °F - 33.3 °F 23% 30.02 in 10.0 mi East 8.1 mph - N/A   Clear
3:35 PM 73.9 °F - 33.8 °F 23% 30.02 in 10.0 mi North - - N/A   Clear
3:54 PM 74.3 °F - 35.1 °F 24% 30.01 in 10.0 mi North - - N/A   Clear
4:15 PM 74.8 °F - 31.8 °F 21% 30.00 in 10.0 mi East 5.8 mph 19.6 mph N/A   Clear
4:35 PM 75.4 °F - 30.9 °F 20% 29.99 in 10.0 mi Calm Calm - N/A   Clear
4:54 PM 75.6 °F - 33.1 °F 21% 29.99 in 10.0 mi North - - N/A   Clear
5:15 PM 75.2 °F - 31.5 °F 20% 29.98 in 10.0 mi North - - N/A   Clear
5:34 PM 74.8 °F - 30.7 °F 20% 29.98 in 10.0 mi North - - N/A   Clear
5:55 PM 75.0 °F - 30.9 °F 20% 29.98 in 10.0 mi North - - N/A   Clear
6:14 PM 73.6 °F - 36.0 °F 25% 29.98 in 10.0 mi North - - N/A   Clear
6:54 PM 71.8 °F - 36.1 °F 27% 29.98 in 10.0 mi North - - N/A   Clear
7:15 PM 71.4 °F - 35.4 °F 27% 29.99 in 10.0 mi NNE 11.5 mph - N/A   Clear
7:35 PM 70.3 °F - 33.1 °F 25% 29.99 in 10.0 mi North - - N/A   Clear
7:55 PM 67.8 °F - 35.8 °F 31% 29.99 in 10.0 mi North - - N/A   Clear
8:14 PM 66.9 °F - 33.6 °F 29% 30.00 in 10.0 mi North - - N/A   Clear
8:35 PM 66.2 °F - 32.7 °F 29% 30.01 in 10.0 mi NNE 5.8 mph - N/A   Clear
8:54 PM 64.0 °F - 34.9 °F 34% 30.01 in 10.0 mi NNE 3.5 mph - N/A   Clear
9:15 PM 61.2 °F - 38.1 °F 42% 30.01 in 10.0 mi Calm Calm - N/A   Clear
9:35 PM 61.9 °F - 36.5 °F 39% 30.02 in 10.0 mi NE 3.5 mph - N/A   Clear
9:55 PM 59.7 °F - 37.9 °F 44% 30.02 in 10.0 mi NE 3.5 mph - N/A   Clear
10:14 PM 58.1 °F - 38.5 °F 48% 30.03 in 10.0 mi NE 3.5 mph - N/A   Clear
10:35 PM 57.4 °F - 39.4 °F 51% 30.03 in 10.0 mi NE 4.6 mph - N/A   Clear
10:55 PM 59.0 °F - 38.1 °F 46% 30.03 in 10.0 mi ENE 4.6 mph - N/A   Clear
11:14 PM 55.2 °F - 40.5 °F 58% 30.03 in 10.0 mi North - - N/A   Clear
11:35 PM 52.9 °F - 40.6 °F 63% 30.03 in 10.0 mi North - - N/A   Clear
11:55 PM 53.8 °F - 40.5 °F 61% 30.03 in 10.0 mi Calm Calm - N/A   Clear